• In Belarus
  • List of Countries
  • For 7 days
  • Water Temperature
  • Weather Map
  • Weather Widgets
  • user-avatar
    Login

    Hourly Weather Idzhewan

    Today, 15 September, Sunday

    Time Temperature Precipitation Wind Pressure Humidity
    00:00 +15°C° 0 mm 1 mps 696 mmHg 86%
    01:00 +14°C° 0 mm 1 mps 695 mmHg 86%
    02:00 +14°C° 0 mm 1 mps 695 mmHg 87%
    03:00 +13°C° 0 mm 0 mps 695 mmHg 89%
    04:00 +14°C° 0 mm 1 mps 695 mmHg 89%
    05:00 +14°C° 0 mm 1 mps 695 mmHg 89%
    06:00 +14°C° 0 mm 1 mps 695 mmHg 88%
    07:00 +16°C° 0 mm 1 mps 695 mmHg 82%
    08:00 +19°C° 0 mm 1 mps 696 mmHg 75%
    09:00 +20°C° 0 mm 2 mps 696 mmHg 67%
    10:00 +21°C° 0 mm 2 mps 696 mmHg 64%
    11:00 +23°C° 0 mm 2 mps 696 mmHg 60%
    12:00 +24°C° 0 mm 2 mps 696 mmHg 56%
    13:00 +24°C° 0.1 mm 2 mps 695 mmHg 58%
    14:00 +24°C° 0.1 mm 2 mps 695 mmHg 60%
    15:00 +23°C° 0 mm 2 mps 695 mmHg 62%
    16:00 +21°C° 0.1 mm 2 mps 695 mmHg 67%
    17:00 +21°C° 0.1 mm 1 mps 695 mmHg 71%
    18:00 +20°C° 0.1 mm 1 mps 695 mmHg 75%
    19:00 +19°C° 0 mm 1 mps 696 mmHg 77%
    20:00 +19°C° 0 mm 1 mps 696 mmHg 79%
    21:00 +18°C° 0 mm 1 mps 696 mmHg 81%
    22:00 +18°C° 0.1 mm 1 mps 696 mmHg 80%
    23:00 +18°C° 0.1 mm 1 mps 696 mmHg 80%

    Tomorrow, 16 September, Monday

    Time Temperature Precipitation Wind Pressure Humidity
    00:00 +18°C° 0.1 mm 1 mps 696 mmHg 80%
    01:00 +16°C° 0 mm 1 mps 696 mmHg 81%
    02:00 +16°C° 0 mm 1 mps 696 mmHg 82%
    03:00 +15°C° 0 mm 0 mps 696 mmHg 83%
    04:00 +16°C° 0.1 mm 1 mps 696 mmHg 85%
    05:00 +16°C° 0.1 mm 1 mps 696 mmHg 86%
    06:00 +15°C° 0.1 mm 1 mps 696 mmHg 87%
    07:00 +18°C° 0.2 mm 1 mps 696 mmHg 83%
    08:00 +19°C° 0.2 mm 2 mps 696 mmHg 78%
    09:00 +20°C° 0.2 mm 2 mps 696 mmHg 73%
    10:00 +20°C° 0 mm 2 mps 695 mmHg 73%
    11:00 +21°C° 0 mm 2 mps 694 mmHg 73%
    12:00 +21°C° 0 mm 2 mps 694 mmHg 73%
    13:00 +21°C° 0 mm 2 mps 693 mmHg 73%
    14:00 +21°C° 0 mm 2 mps 693 mmHg 73%
    15:00 +23°C° 0 mm 2 mps 693 mmHg 72%
    16:00 +21°C° 0 mm 2 mps 692 mmHg 76%
    17:00 +21°C° 0 mm 1 mps 692 mmHg 79%
    18:00 +21°C° 0 mm 1 mps 692 mmHg 83%
    19:00 +20°C° 0 mm 1 mps 692 mmHg 85%
    20:00 +19°C° 0 mm 1 mps 693 mmHg 88%
    21:00 +18°C° 0 mm 1 mps 693 mmHg 90%
    22:00 +18°C° 0 mm 1 mps 693 mmHg 89%
    23:00 +18°C° 0 mm 1 mps 692 mmHg 88%

    Day after tomorrow, 17 September, Tuesday

    Time Temperature Precipitation Wind Pressure Humidity
    00:00 +18°C° 0 mm 1 mps 692 mmHg 87%
    01:00 +17°C° 0 mm 2 mps 692 mmHg 86%
    02:00 +17°C° 0 mm 2 mps 692 mmHg 85%
    03:00 +17°C° 0 mm 2 mps 692 mmHg 83%
    04:00 +17°C° 0 mm 2 mps 692 mmHg 80%
    05:00 +17°C° 0 mm 2 mps 691 mmHg 76%
    06:00 +17°C° 0 mm 2 mps 691 mmHg 73%
    07:00 +20°C° 0 mm 2 mps 692 mmHg 64%
    08:00 +23°C° 0 mm 2 mps 692 mmHg 56%
    09:00 +26°C° 0 mm 2 mps 692 mmHg 47%
    10:00 +27°C° 0 mm 2 mps 692 mmHg 44%
    11:00 +28°C° 0 mm 3 mps 692 mmHg 41%
    12:00 +29°C° 0 mm 3 mps 692 mmHg 38%
    13:00 +29°C° 0 mm 3 mps 691 mmHg 38%
    14:00 +29°C° 0 mm 3 mps 691 mmHg 38%
    15:00 +29°C° 0 mm 3 mps 690 mmHg 38%
    16:00 +27°C° 0 mm 3 mps 690 mmHg 49%
    17:00 +24°C° 0 mm 3 mps 690 mmHg 59%
    18:00 +21°C° 0 mm 3 mps 689 mmHg 70%
    19:00 +20°C° 0.3 mm 3 mps 690 mmHg 75%
    20:00 +19°C° 0.3 mm 2 mps 691 mmHg 81%
    21:00 +18°C° 0.3 mm 2 mps 692 mmHg 86%
    22:00 +18°C° 0 mm 2 mps 692 mmHg 84%
    23:00 +18°C° 0 mm 1 mps 692 mmHg 82%

    18 September, Wednesday

    Time Temperature Precipitation Wind Pressure Humidity
    00:00 +18°C° 0 mm 1 mps 692 mmHg 80%
    01:00 +18°C° 0 mm 1 mps 692 mmHg 79%
    02:00 +18°C° 0 mm 1 mps 692 mmHg 78%
    03:00 +16°C° 0 mm 1 mps 693 mmHg 78%
    04:00 +16°C° 0 mm 1 mps 693 mmHg 76%
    05:00 +16°C° 0 mm 1 mps 693 mmHg 75%
    06:00 +16°C° 0 mm 1 mps 693 mmHg 74%
    07:00 +19°C° 0 mm 1 mps 694 mmHg 67%
    08:00 +22°C° 0 mm 1 mps 695 mmHg 60%
    09:00 +24°C° 0 mm 1 mps 695 mmHg 53%
    10:00 +25°C° 0 mm 1 mps 695 mmHg 50%
    11:00 +26°C° 0 mm 2 mps 695 mmHg 46%
    12:00 +27°C° 0 mm 2 mps 695 mmHg 43%
    13:00 +27°C° 0 mm 2 mps 695 mmHg 45%
    14:00 +27°C° 0 mm 2 mps 695 mmHg 46%
    15:00 +27°C° 0 mm 2 mps 694 mmHg 48%
    16:00 +26°C° 0 mm 2 mps 694 mmHg 56%
    17:00 +24°C° 0 mm 1 mps 694 mmHg 63%
    18:00 +22°C° 0 mm 1 mps 694 mmHg 71%
    19:00 +21°C° 0 mm 1 mps 694 mmHg 73%
    20:00 +21°C° 0 mm 1 mps 694 mmHg 75%
    21:00 +20°C° 0 mm 1 mps 695 mmHg 77%
    22:00 +20°C° 0 mm 1 mps 695 mmHg 77%
    23:00 +20°C° 0 mm 1 mps 695 mmHg 77%

    19 September, Thursday

    Time Temperature Precipitation Wind Pressure Humidity
    00:00 +19°C° 0 mm 1 mps 694 mmHg 76%
    01:00 +19°C° 0 mm 1 mps 694 mmHg 76%
    02:00 +19°C° 0 mm 1 mps 694 mmHg 75%
    03:00 +18°C° 0 mm 1 mps 694 mmHg 74%
    04:00 +18°C° 0 mm 1 mps 694 mmHg 73%
    05:00 +17°C° 0 mm 2 mps 694 mmHg 71%
    06:00 +17°C° 0 mm 2 mps 694 mmHg 69%
    07:00 +21°C° 0 mm 1 mps 694 mmHg 61%
    08:00 +23°C° 0 mm 1 mps 695 mmHg 53%
    09:00 +26°C° 0 mm 1 mps 695 mmHg 45%
    10:00 +27°C° 0 mm 1 mps 695 mmHg 43%
    11:00 +28°C° 0 mm 1 mps 695 mmHg 40%
    12:00 +29°C° 0 mm 2 mps 694 mmHg 37%
    13:00 +29°C° 0 mm 2 mps 694 mmHg 38%
    14:00 +29°C° 0 mm 2 mps 694 mmHg 39%
    15:00 +29°C° 0 mm 2 mps 693 mmHg 39%
    16:00 +27°C° 0 mm 2 mps 693 mmHg 45%
    17:00 +25°C° 0 mm 1 mps 693 mmHg 51%
    18:00 +23°C° 0 mm 1 mps 693 mmHg 56%
    19:00 +22°C° 0 mm 1 mps 693 mmHg 58%
    20:00 +22°C° 0 mm 1 mps 693 mmHg 60%
    21:00 +21°C° 0 mm 1 mps 693 mmHg 62%
    22:00 +20°C° 0 mm 1 mps 693 mmHg 63%
    23:00 +20°C° 0 mm 1 mps 693 mmHg 64%

    20 September, Friday

    Time Temperature Precipitation Wind Pressure Humidity
    00:00 +17°C° 0 mm 0 mps 693 mmHg 66%
    01:00 +17°C° 0 mm 0 mps 693 mmHg 67%
    02:00 +18°C° 0 mm 1 mps 693 mmHg 69%
    03:00 +18°C° 0 mm 1 mps 692 mmHg 71%
    04:00 +16°C° 0 mm 1 mps 692 mmHg 72%
    05:00 +16°C° 0 mm 1 mps 692 mmHg 73%
    06:00 +16°C° 0 mm 1 mps 692 mmHg 74%
    07:00 +19°C° 0 mm 1 mps 692 mmHg 68%
    08:00 +21°C° 0 mm 1 mps 692 mmHg 63%
    09:00 +23°C° 0 mm 1 mps 692 mmHg 57%
    10:00 +24°C° 0 mm 2 mps 692 mmHg 55%
    11:00 +26°C° 0 mm 2 mps 692 mmHg 53%
    12:00 +27°C° 0 mm 2 mps 691 mmHg 51%
    13:00 +27°C° 0 mm 2 mps 691 mmHg 50%
    14:00 +28°C° 0 mm 2 mps 690 mmHg 48%
    15:00 +28°C° 0 mm 2 mps 690 mmHg 47%
    16:00 +26°C° 0 mm 1 mps 689 mmHg 57%
    17:00 +24°C° 0 mm 1 mps 689 mmHg 67%
    18:00 +22°C° 0 mm 1 mps 689 mmHg 77%
    19:00 +21°C° 0 mm 1 mps 689 mmHg 79%
    20:00 +20°C° 0 mm 1 mps 689 mmHg 81%
    21:00 +20°C° 0 mm 1 mps 689 mmHg 82%
    22:00 +19°C° 0 mm 1 mps 689 mmHg 83%
    23:00 +17°C° 0 mm 0 mps 689 mmHg 84%
    Show more